Simultaneous Nadir Overpasses (SNOs) Predictions

Prediction of SNOs between GOES-15 and METOP-B Satellite Orbit:

Table of predicted SNOs for the next 14.0 days since TLE Epoch: 3/9/2024
Index Date Time (GOES-15) GOES-15 Lat,Lon METOP-B Lat,Lon Distance(km) Time Diff (sec)
1 03/09/2024 17:09:51 0.00, 61.23 0.47, 63.37 243.43 80
2 03/11/2024 05:28:44 -0.01, 61.24 0.52, 58.78 280.18 80
3 03/12/2024 05:10:45 -0.00, 61.24 -0.55, 63.78 288.94 80
4 03/13/2024 17:29:46 0.01, 61.20 -0.46, 59.17 232.75 80
5 03/14/2024 17:06:28 0.01, 61.20 0.67, 64.15 335.49 80
6 03/16/2024 05:25:20 -0.02, 61.24 0.37, 59.58 189.70 80
7 03/17/2024 05:07:21 -0.02, 61.24 -0.77, 64.56 378.72 80
8 03/18/2024 17:26:23 0.03, 61.21 -0.23, 59.94 143.34 80
9 03/19/2024 17:03:03 0.02, 61.21 0.86, 64.94 424.57 80
10 03/21/2024 05:21:56 -0.03, 61.25 0.17, 60.36 101.41 80
11 03/22/2024 05:03:56 -0.02, 61.25 -0.91, 65.36 467.01 80
